EW9945 Weather Reports


time (UTC)temp
F
wind
direction
speed
knots
gust
knots
rain 1hr
in
rain 24hr
in
rain mn
in
humidity
%
barometer
mb
20200531073503 47 303 0.0 1.7 0.00 0.00 0.00 89 1017.9
20200531073003 47 303 0.0 3.5 0.00 0.00 0.00 90 1017.9
20200531072505 47 303 0.9 3.5 0.00 0.00 0.00 90 1017.9
20200531072002 47 303 0.9 3.5 0.00 0.00 0.00 90 1017.9
20200531071535 47 303 2.6 3.5 0.00 0.00 0.00 89 1017.9
20200531071006 47 303 2.6 3.5 0.00 0.00 0.00 89 1017.9
20200531070506 47 303 0.9 2.6 0.00 0.00 0.00 89 1017.9
20200531070001 47 303 0.9 2.6 0.00 0.00 0.00 89 1018.0
20200531065104 47 303 0.9 3.5 0.00 0.00 0.00 88 1017.9
20200531064734 48 303 0.9 3.5 0.00 0.00 0.00 88 1018.0
20200531064103 48 303 1.7 3.5 0.00 0.00 0.00 87 1018.0
20200531063603 48 303 1.7 4.3 0.00 0.00 0.00 87 1018.1
20200531063210 48 303 2.6 4.3 0.00 0.00 0.00 87 1018.1
20200531062557 48 303 1.7 3.5 0.00 0.00 0.00 87 1018.1
20200531062110 48 303 0.0 1.7 0.00 0.00 0.00 87 1018.1
20200531061635 48 303 0.0 2.6 0.00 0.00 0.00 86 1018.2
20200531061057 49 303 1.7 4.3 0.00 0.00 0.00 86 1018.2
20200531060604 48 303 1.7 4.3 0.00 0.00 0.00 86 1018.1
20200531060253 48 303 0.9 3.5 0.00 0.00 0.00 86 1018.0
20200531055107 49 303 0.0 0.9 0.00 0.00 0.00 84 1018.0
20200531054645 49 303 0.0 3.5 0.00 0.00 0.00 84 1017.8
20200531054055 49 303 0.9 3.5 0.00 0.00 0.00 85 1017.9
20200531053555 49 303 0.0 2.6 0.00 0.00 0.00 84 1017.9
20200531053217 49 303 0.0 3.5 0.00 0.00 0.00 85 1017.9
20200531052555 49 303 0.9 4.3 0.00 0.00 0.00 85 1017.9
20200531052057 48 304 1.7 4.3 0.00 0.00 0.00 86 1017.9
20200531051624 48 306 0.9 3.5 0.00 0.00 0.00 86 1017.9
20200531051059 48 307 0.0 3.5 0.00 0.00 0.00 86 1017.9
20200531050600 48 307 0.0 1.7 0.00 0.00 0.00 85 1017.8
20200531050128 49 307 0.0 1.7 0.00 0.00 0.00 84 1017.8
20200531045050 50 307 0.9 2.6 0.00 0.00 0.00 81 1017.9
20200531044624 50 307 0.9 2.6 0.00 0.00 0.00 81 1017.8
20200531044048 50 307 0.9 4.3 0.00 0.00 0.00 80 1017.9
20200531043547 50 307 0.9 6.1 0.00 0.00 0.00 80 1017.9
20200531043139 51 314 3.5 6.1 0.00 0.00 0.00 80 1018.0
20200531042607 51 304 2.6 5.2 0.00 0.00 0.00 80 1018.0
20200531042045 51 305 2.6 5.2 0.00 0.00 0.00 79 1018.0
20200531041718 51 298 3.5 5.2 0.00 0.00 0.00 79 1017.9
20200531041045 51 293 3.5 5.2 0.00 0.00 0.00 78 1017.8
20200531040543 51 298 3.5 6.1 0.00 0.00 0.00 78 1017.9
20200531040043 52 309 3.5 8.7 0.00 0.00 0.00 77 1017.9
20200531035041 52 331 3.5 9.6 0.00 0.00 0.00 77 1017.8
20200531034618 52 314 4.3 10.4 0.00 0.00 0.00 76 1017.8
20200531034040 52 313 5.2 10.4 0.00 0.00 0.00 76 1017.9
20200531033544 52 302 5.2 9.6 0.00 0.00 0.00 76 1017.8
20200531033141 52 303 4.3 9.6 0.00 0.00 0.00 75 1017.8
20200531032544 53 311 4.3 8.7 0.00 0.00 0.00 75 1017.8
20200531032036 53 313 5.2 11.3 0.00 0.00 0.00 74 1017.8
20200531031642 53 310 6.1 10.4 0.00 0.00 0.00 74 1017.7
20200531031035 53 311 6.1 9.6 0.00 0.00 0.00 74 1017.6
20200531030534 53 309 6.1 13.0 0.00 0.00 0.00 74 1017.7
20200531030037 53 311 6.1 13.0 0.00 0.00 0.00 74 1017.7
20200531025039 53 289 7.0 13.0 0.00 0.00 0.00 75 1017.7
20200531024605 53 314 6.1 9.6 0.00 0.00 0.00 75 1017.6
20200531024036 53 314 4.3 11.3 0.00 0.00 0.00 75 1017.6
20200531023542 53 333 6.1 11.3 0.00 0.00 0.00 75 1017.5
20200531023102 54 311 2.6 7.0 0.00 0.00 0.00 74 1017.5
20200531022529 54 300 2.6 7.0 0.00 0.00 0.00 74 1017.5
20200531022036 54 303 3.5 7.0 0.00 0.00 0.00 73 1017.4
20200531021629 54 305 2.6 7.0 0.00 0.00 0.00 72 1017.3
20200531021032 55 302 3.5 8.7 0.00 0.00 0.00 72 1017.2
20200531020528 55 302 5.2 8.7 0.00 0.00 0.00 71 1017.2
20200531020047 55 307 6.1 10.4 0.00 0.00 0.00 71 1017.0
20200531015026 55 302 7.0 13.0 0.00 0.00 0.00 70 1017.0
20200531014558 56 300 7.8 13.0 0.00 0.00 0.00 70 1016.9
20200531014025 56 290 8.7 14.8 0.00 0.00 0.00 69 1016.9
20200531013524 56 327 7.0 15.6 0.00 0.00 0.00 70 1016.8
20200531013135 56 327 9.6 15.6 0.00 0.00 0.00 69 1016.6
20200531012527 56 294 7.8 13.0 0.00 0.00 0.00 69 1016.6
20200531012044 57 305 6.1 13.0 0.00 0.00 0.00 68 1016.4
20200531011602 57 315 5.2 10.4 0.00 0.00 0.00 68 1016.3
20200531011020 57 343 6.1 13.0 0.00 0.00 0.00 66 1016.2
20200531010519 57 317 7.8 14.8 0.00 0.00 0.00 66 1016.0
20200531010034 58 313 8.7 14.8 0.00 0.00 0.00 65 1016.0
20200531005019 58 276 7.8 12.2 0.00 0.00 0.00 64 1015.7
20200531004541 58 284 7.8 13.0 0.00 0.00 0.00 64 1015.6
20200531004017 59 305 7.0 13.9 0.00 0.00 0.00 64 1015.6
20200531003517 59 308 8.7 17.4 0.00 0.00 0.00 64 1015.6
20200531003055 59 320 10.4 18.2 0.00 0.00 0.00 63 1015.6
20200531002521 59 336 10.4 18.2 0.00 0.00 0.00 63 1015.5
20200531002021 60 320 12.2 18.2 0.00 0.00 0.00 62 1015.3
20200531001551 60 311 7.0 14.8 0.00 0.00 0.00 61 1015.3
20200531001016 60 306 7.0 12.2 0.00 0.00 0.00 60 1015.2
20200531000517 60 327 6.1 16.5 0.00 0.03 0.00 60 1015.2
20200531000018 60 305 9.6 15.6 0.00 0.03 0.00 60 1015.1
20200530235013 61 302 7.8 16.5 0.00 0.03 0.00 60 1015.0
20200530234555 61 297 12.2 17.4 0.00 0.03 0.00 59 1014.9
20200530234012 61 316 9.6 19.1 0.00 0.03 0.00 60 1014.9
20200530233511 62 327 12.2 19.1 0.00 0.03 0.00 59 1014.8
20200530233019 62 309 12.2 18.2 0.00 0.03 0.00 58 1014.6
20200530232509 63 342 10.4 15.6 0.00 0.03 0.00 56 1014.6
20200530232010 63 317 8.7 14.8 0.00 0.03 0.00 53 1014.5
20200530231519 64 302 7.0 14.8 0.00 0.03 0.00 53 1014.3
20200530231015 64 313 8.7 16.5 0.00 0.03 0.00 53 1014.1
20200530230516 64 321 10.4 16.5 0.00 0.03 0.00 52 1014.0
20200530230013 64 326 8.7 15.6 0.00 0.03 0.00 52 1013.9
20200530225013 64 303 7.0 13.9 0.00 0.03 0.00 53 1013.6
20200530224515 64 323 7.8 11.3 0.00 0.03 0.00 53 1013.6
20200530224010 64 317 7.0 11.3 0.00 0.03 0.00 51 1013.4
20200530223510 65 313 7.8 15.6 0.00 0.03 0.00 51 1013.3
20200530223028 65 313 8.7 16.5 0.00 0.03 0.00 49 1013.2
20200530222509 66 296 10.4 16.5 0.00 0.03 0.00 48 1013.2
20200530222013 66 298 8.7 13.9 0.00 0.03 0.00 50 1013.1
20200530221510 66 309 9.6 18.2 0.00 0.03 0.00 51 1013.0
20200530221020 66 317 12.2 22.6 0.00 0.03 0.00 51 1012.8
20200530220509 66 310 13.0 19.1 0.00 0.03 0.00 48 1012.8
20200530220009 67 327 7.8 15.6 0.00 0.03 0.00 51 1013.0
20200530215009 67 355 9.6 17.4 0.00 0.03 0.00 50 1012.8
20200530214611 67 300 6.1 16.5 0.00 0.03 0.00 52 1012.8
20200530214014 67 317 8.7 16.5 0.00 0.03 0.00 50 1012.7
20200530213511 67 311 7.8 13.9 0.00 0.03 0.00 51 1012.8
20200530213036 67 317 10.4 13.9 0.00 0.03 0.00 52 1012.7
20200530212508 67 337 9.6 16.5 0.00 0.03 0.00 52 1012.6
20200530212009 67 309 10.4 16.5 0.00 0.03 0.00 52 1012.6
20200530211514 68 307 8.7 17.4 0.00 0.03 0.00 52 1012.5
20200530211011 68 286 11.3 18.2 0.00 0.03 0.00 53 1012.5
20200530210508 67 327 12.2 18.2 0.00 0.03 0.00 54 1012.4
20200530210018 67 338 13.0 17.4 0.00 0.03 0.00 55 1012.4
20200530205007 67 278 7.8 15.6 0.00 0.03 0.00 52 1012.3
20200530204544 69 327 9.6 17.4 0.00 0.03 0.00 50 1012.1
20200530204004 71 323 6.1 14.8 0.00 0.03 0.00 49 1012.2
20200530203507 70 311 2.6 9.6 0.00 0.03 0.00 52 1012.1
20200530203039 70 304 4.3 9.6 0.00 0.03 0.00 50 1012.2
20200530202504 70 82 1.7 13.9 0.00 0.03 0.00 52 1012.1
20200530202002 69 285 7.8 14.8 0.00 0.03 0.00 52 1012.2
20200530201511 69 182 6.1 13.0 0.00 0.03 0.00 53 1012.1
20200530201003 68 286 5.2 11.3 0.00 0.03 0.00 54 1012.2
20200530200502 68 315 7.0 15.6 0.00 0.03 0.00 54 1012.3
20200530200004 68 319 8.7 17.4 0.00 0.03 0.00 54 1012.2
20200530195502 68 317 4.3 11.3 0.00 0.03 0.00 56 1012.3
20200530195003 67 216 6.1 11.3 0.00 0.03 0.00 58 1012.3
20200530194503 66 339 5.2 11.3 0.00 0.03 0.00 58 1012.3
20200530194001 66 301 5.2 11.3 0.00 0.03 0.00 58 1012.3
20200530193501 66 309 6.1 14.8 0.00 0.03 0.00 57 1012.2
20200530193002 67 295 8.7 15.6 0.00 0.03 0.00 56 1012.2
20200530192001 68 305 8.7 15.6 0.00 0.03 0.00 54 1012.0
20200530191506 68 323 7.0 15.6 0.00 0.03 0.00 56 1012.1
20200530191005 68 302 7.0 12.2 0.00 0.03 0.00 54 1012.1
20200530190512 68 301 7.0 10.4 0.00 0.03 0.00 54 1012.1
20200530190002 68 317 6.1 13.9 0.00 0.03 0.00 52 1012.2
20200530185505 70 308 6.1 13.9 0.00 0.03 0.00 52 1012.1
20200530185002 69 294 2.6 9.6 0.00 0.03 0.00 57 1012.3
20200530184503 68 316 5.2 9.6 0.00 0.03 0.00 57 1012.3
20200530184002 68 313 4.3 13.9 0.00 0.03 0.00 57 1012.3
20200530183601 67 321 5.2 16.5 0.00 0.03 0.00 56 1012.4
20200530183500 68 302 6.1 16.5 0.00 0.03 0.00 56 1012.5
20200530183001 69 333 9.6 16.5 0.00 0.03 0.00 54 1012.4
20200530181947 66 325 9.6 15.6 0.00 0.03 0.00 59 1012.6
20200530181501 66 294 10.4 15.6 0.00 0.03 0.00 58 1012.6
20200530180501 67 323 10.4 18.2 0.00 0.03 0.00 60 1012.6
20200530180001 68 289 6.1 13.0 0.00 0.03 0.00 61 1012.6
20200530175621 68 283 8.7 13.0 0.00 0.03 0.00 57 1012.6
20200530175125 67 327 7.0 13.0 0.00 0.03 0.00 60 1012.6
20200530174704 67 311 7.8 13.0 0.00 0.03 0.00 60 1012.7
20200530174104 67 310 5.2 12.2 0.00 0.03 0.00 61 1012.7
20200530173600 66 334 5.2 13.9 0.00 0.03 0.00 63 1012.8
20200530173202 67 288 5.2 13.0 0.00 0.03 0.00 63 1012.9
20200530172600 66 306 8.7 15.6 0.00 0.03 0.00 65 1012.9
20200530172058 65 323 7.8 15.6 0.00 0.03 0.00 64 1012.8
20200530171813 65 297 8.7 15.6 0.00 0.03 0.00 63 1012.9
20200530171100 65 302 6.1 16.5 0.00 0.03 0.00 62 1012.9
20200530170637 66 305 8.7 16.5 0.00 0.03 0.00 60 1012.9
20200530170144 67 320 3.5 14.8 0.00 0.03 0.00 60 1012.8
20200530165558 67 284 7.0 17.4 0.00 0.03 0.00 60 1012.9
20200530165058 67 311 8.7 18.2 0.00 0.03 0.00 59 1012.8
20200530164714 67 304 9.6 18.2 0.00 0.03 0.00 59 1012.8
20200530164058 68 327 7.8 13.9 0.00 0.03 0.00 57 1012.8
20200530163558 69 317 3.5 8.7 0.00 0.03 0.00 57 1012.8
20200530163209 69 266 1.7 8.7 0.00 0.03 0.00 56 1012.7
20200530162059 69 315 7.0 10.4 0.00 0.03 0.00 54 1012.7
20200530161623 69 325 4.3 14.8 0.00 0.03 0.00 56 1012.7
20200530161102 69 316 6.1 14.8 0.00 0.03 0.00 56 1012.8
20200530160556 69 316 2.6 9.6 0.00 0.03 0.00 55 1012.9
20200530160136 70 319 0.9 6.1 0.00 0.03 0.00 56 1013.0
20200530155604 69 336 0.9 6.1 0.00 0.03 0.00 56 1012.9
20200530155056 69 173 0.9 2.6 0.00 0.03 0.00 57 1012.9
20200530154740 69 53 0.0 6.1 0.00 0.03 0.00 56 1013.0
20200530154110 69 315 0.9 9.6 0.00 0.03 0.00 54 1013.0
20200530153554 69 302 1.7 6.1 0.00 0.03 0.00 57 1013.1
20200530153130 69 124 2.6 4.3 0.00 0.03 0.00 59 1013.1
20200530152552 67 327 0.9 7.8 0.00 0.03 0.00 60 1013.3
20200530152052 67 227 0.0 7.8 0.00 0.03 0.00 60 1013.3
20200530151612 67 295 2.6 7.8 0.00 0.03 0.00 61 1013.4
20200530151053 67 116 2.6 7.8 0.00 0.03 0.00 59 1013.4
20200530150553 67 319 4.3 9.6 0.00 0.03 0.00 60 1013.5
20200530150209 67 338 2.6 8.7 0.00 0.03 0.00 57 1013.3
20200530145554 67 321 2.6 9.6 0.00 0.03 0.00 59 1013.5
20200530145049 67 315 6.1 9.6 0.00 0.03 0.00 57 1013.4
20200530144702 67 167 0.9 8.7 0.00 0.03 0.00 60 1013.6
20200530144048 67 313 0.9 8.7 0.00 0.03 0.00 61 1013.6
20200530143548 66 313 1.7 7.8 0.00 0.03 0.00 61 1013.5
20200530143053 66 278 4.3 10.4 0.00 0.03 0.00 60 1013.5
20200530142547 66 313 4.3 9.6 0.00 0.03 0.00 61 1013.7
20200530142049 66 329 4.3 9.6 0.00 0.03 0.00 61 1013.7
20200530141617 65 315 4.3 8.7 0.00 0.03 0.00 62 1013.7
20200530141052 65 300 5.2 8.7 0.00 0.03 0.00 62 1013.7
20200530140601 66 360 5.2 9.6 0.00 0.03 0.00 62 1013.9
20200530140123 66 346 3.5 8.7 0.00 0.03 0.00 63 1013.9
20200530135547 66 323 4.3 7.8 0.00 0.03 0.00 62 1014.0
20200530135048 66 327 3.5 7.8 0.00 0.03 0.00 63 1014.1
20200530134713 66 333 2.6 6.1 0.00 0.03 0.00 62 1014.3
20200530134053 66 325 3.5 6.1 0.00 0.03 0.00 60 1014.2
20200530133546 67 340 3.5 6.1 0.00 0.03 0.00 60 1014.3
20200530133126 66 344 0.9 5.2 0.00 0.03 0.00 62 1014.3
20200530132545 65 344 2.6 7.0 0.00 0.03 0.00 61 1014.3
20200530132044 66 344 3.5 7.0 0.00 0.03 0.00 60 1014.3
20200530131614 66 333 1.7 5.2 0.00 0.03 0.00 62 1014.3
20200530131041 65 333 0.9 4.3 0.00 0.03 0.00 62 1014.2
20200530130542 65 333 0.0 4.3 0.00 0.03 0.00 63 1014.2
20200530130113 65 333 1.7 4.3 0.00 0.03 0.00 63 1014.2
20200530125554 64 317 0.0 3.5 0.00 0.03 0.00 65 1014.3
20200530125036 63 317 0.0 1.7 0.00 0.03 0.00 67 1014.4
20200530124622 62 317 0.0 3.5 0.00 0.03 0.00 69 1014.4
20200530124035 61 319 0.0 5.2 0.00 0.03 0.00 71 1014.5
20200530123534 60 311 2.6 5.2 0.00 0.03 0.00 71 1014.5
20200530123059 61 311 0.0 2.6 0.00 0.03 0.00 72 1014.5
20200530122534 61 311 2.6 4.3 0.00 0.03 0.00 71 1014.6
20200530122034 61 311 2.6 4.3 0.00 0.03 0.00 71 1014.5
20200530121555 59 311 0.0 4.3 0.00 0.03 0.00 76 1014.5
20200530121033 58 311 1.7 5.2 0.00 0.03 0.00 76 1014.5
20200530120533 58 308 2.6 5.2 0.00 0.03 0.00 76 1014.4
20200530120114 58 317 3.5 5.2 0.00 0.03 0.00 77 1014.4
20200530115532 58 304 1.7 4.3 0.00 0.03 0.00 77 1014.3
20200530115037 57 305 2.6 5.2 0.00 0.03 0.00 76 1014.2
20200530114534 58 307 2.6 5.2 0.00 0.03 0.00 76 1014.1
20200530114034 57 311 0.0 4.3 0.00 0.03 0.00 79 1014.0
20200530113552 57 311 2.6 4.3 0.00 0.03 0.00 78 1014.0
20200530113034 57 305 0.9 5.2 0.00 0.03 0.00 78 1014.1
20200530112537 58 310 1.7 4.3 0.00 0.03 0.00 78 1014.2
20200530112029 58 310 1.7 4.3 0.00 0.03 0.00 77 1014.1
20200530111606 58 297 0.9 3.5 0.00 0.03 0.00 79 1014.1
20200530111029 58 293 0.9 2.6 0.00 0.03 0.00 80 1014.1
20200530110528 58 293 0.0 0.9 0.00 0.18 0.00 84 1014.1
20200530110100 57 293 0.0 0.9 0.00 0.18 0.00 86 1014.1
20200530105528 56 293 0.0 0.9 0.00 0.18 0.00 87 1014.2
20200530105031 56 293 0.0 0.0 0.00 0.18 0.00 87 1014.1
20200530104554 55 293 0.0 0.0 0.00 0.18 0.00 88 1014.1
20200530104115 54 293 0.0 0.9 0.00 0.18 0.00 88 1014.1
20200530103527 54 293 0.0 0.9 0.00 0.18 0.00 88 1014.1
20200530103120 54 293 0.0 0.0 0.00 0.18 0.00 87 1014.0
20200530102526 54 293 0.0 1.7 0.00 0.18 0.00 86 1013.8
20200530102029 54 293 0.0 1.7 0.00 0.18 0.00 86 1013.8
20200530101541 54 293 0.0 4.3 0.00 0.18 0.00 85 1013.7
20200530101025 54 293 2.6 4.3 0.00 0.18 0.00 86 1013.6
20200530100531 54 301 2.6 5.2 0.00 0.18 0.00 86 1013.6
20200530100036 54 302 2.6 7.8 0.00 0.18 0.00 86 1013.5
20200530095527 54 306 3.5 7.8 0.00 0.18 0.00 86 1013.5
20200530095036 54 309 3.5 7.8 0.00 0.18 0.00 86 1013.4
20200530094533 54 284 4.3 7.8 0.00 0.18 0.00 86 1013.4
20200530094021 54 302 4.3 7.0 0.00 0.18 0.00 87 1013.3
20200530093519 54 296 3.5 6.1 0.00 0.18 0.00 87 1013.2
20200530093030 54 298 3.5 6.1 0.00 0.18 0.00 87 1013.2
20200530092522 54 297 2.6 5.2 0.00 0.18 0.00 87 1013.1
20200530092024 54 296 2.6 5.2 0.00 0.18 0.00 87 1013.1
20200530091611 54 297 2.6 4.3 0.00 0.18 0.00 87 1013.1
20200530091017 54 303 1.7 4.3 0.00 0.18 0.00 87 1012.9
20200530090517 54 302 0.0 4.3 0.00 0.18 0.00 86 1012.9
20200530090026 55 296 3.5 5.2 0.00 0.18 0.00 86 1012.9
20200530085520 55 288 2.6 6.1 0.00 0.18 0.00 85 1012.9
20200530085016 55 297 3.5 6.1 0.00 0.18 0.00 85 1012.8
20200530084525 55 297 2.6 8.7 0.00 0.18 0.00 85 1012.7
20200530084015 55 329 3.5 7.8 0.00 0.18 0.00 85 1012.7
20200530083515 55 303 0.9 4.3 0.00 0.18 0.00 85 1012.6
20200530083057 55 307 1.7 6.1 0.00 0.18 0.00 85 1012.6
20200530082516 56 303 3.5 7.8 0.00 0.18 0.00 84 1012.6
20200530082015 56 294 3.5 7.8 0.00 0.18 0.00 85 1012.5
20200530081511 55 302 3.5 7.8 0.00 0.18 0.00 85 1012.5
20200530081007 56 305 1.7 4.3 0.00 0.18 0.00 85 1012.5
20200530080506 56 306 0.9 4.3 0.00 0.18 0.00 84 1012.5
20200530080005 56 314 0.0 4.3 0.00 0.18 0.00 84 1012.5
20200530075511 56 298 0.9 6.1 0.00 0.18 0.00 84 1012.5
20200530075004 56 305 1.7 6.1 0.00 0.18 0.00 84 1012.4
20200530074510 56 302 0.9 4.3 0.00 0.18 0.00 84 1012.3
20200530074002 56 309 0.9 6.1 0.00 0.18 0.00 84 1012.4